User: anonymous   Login
Location: DARK SKY Beskydy - Park tmavé oblohy, www.darkskybeskydy.cz
(49.4926°N, 18.5016°E)
Time: 13:27:01
(UTC+01:00)
Language:

Courier 1B - Orbit

View from above orbital plane
View from above orbital plane
View from above satellite
View from above satellite

Ground track
Ground track

The orbit data is extracted from the following two-line orbital elements,

1    58U 60013A   24053.18983237  .00000106  00000-0  36325-4 0  9998
2    58  28.3266 112.2748 0164959  42.7465 318.5783 13.46369040120508
Epoch (UTC): 22 February 2024 04:33:21
Eccentricity: 0.0164959
inclination: 28.3266°
perigee height: 962 km
apogee height: 1209 km
right ascension of ascending node: 112.2748°
argument of perigee: 42.7465°
revolutions per day: 13.46369040
mean anomaly at epoch: 318.5783°
orbit number at epoch: 12050

The dashed part of the orbit path shows where the satellite is in the earth's shadow,  

DLR